| time (UTC) | temp C | wind direction | speed KPH | gust KPH | rain 1hr cm | rain 24hr cm | rain mn cm | humidity % | barometer mb |
| 20260906204554 | 27 | 0 | 3.2 | 9.7 | 0.00 | 0.00 | 0.00 | 75 | 1014.7 |
| 20260906203053 | 27 | 69 | 1.6 | 9.7 | 0.00 | 0.00 | 0.00 | 75 | 1014.6 |
| 20260906201549 | 27 | 109 | 3.2 | 16.1 | 0.00 | 0.00 | 0.00 | 75 | 1014.6 |
| 20260906200047 | 27 | 97 | 6.4 | 16.1 | 0.00 | 0.00 | 0.00 | 73 | 1014.2 |
| 20260906194554 | 27 | 130 | 6.4 | 16.1 | 0.00 | 0.00 | 0.00 | 72 | 1014.1 |
| 20260906193051 | 27 | 140 | 4.8 | 16.1 | 0.00 | 0.00 | 0.00 | 73 | 1014.3 |
| 20260906191556 | 27 | 94 | 3.2 | 16.1 | 0.00 | 0.00 | 0.00 | 74 | 1014.4 |
| 20260906190050 | 26 | 122 | 6.4 | 11.3 | 0.00 | 0.00 | 0.00 | 74 | 1014.7 |
| 20260906184601 | 27 | 128 | 6.4 | 16.1 | 0.00 | 0.00 | 0.00 | 74 | 1015.0 |
| 20260906183052 | 27 | 95 | 11.3 | 17.7 | 0.00 | 0.00 | 0.00 | 72 | 1015.2 |
| 20260906181551 | 27 | 85 | 3.2 | 14.5 | 0.00 | 0.00 | 0.00 | 72 | 1015.3 |
| 20260906180112 | 27 | 136 | 6.4 | 14.5 | 0.00 | 0.00 | 0.00 | 74 | 1015.6 |
| 20260906174556 | 26 | 97 | 1.6 | 14.5 | 0.00 | 0.00 | 0.00 | 77 | 1015.8 |
| 20260906173054 | 26 | 99 | 4.8 | 12.9 | 0.00 | 0.00 | 0.00 | 75 | 1015.7 |
| 20260906171549 | 26 | 109 | 6.4 | 11.3 | 0.00 | 0.00 | 0.00 | 76 | 1016.0 |
| 20260906170059 | 25 | 117 | 8.0 | 14.5 | 0.00 | 0.00 | 0.00 | 77 | 1016.0 |
| 20260906164556 | 25 | 123 | 6.4 | 16.1 | 0.00 | 0.00 | 0.00 | 79 | 1016.1 |
| 20260906163111 | 25 | 106 | 8.0 | 19.3 | 0.00 | 0.00 | 0.00 | 78 | 1016.4 |
| 20260906161549 | 24 | 117 | 9.7 | 16.1 | 0.00 | 0.00 | 0.00 | 80 | 1016.5 |
| 20260906160049 | 23 | 79 | 9.7 | 14.5 | 0.00 | 0.00 | 0.00 | 82 | 1016.6 |
| 20260906154555 | 22 | 129 | 4.8 | 11.3 | 0.00 | 0.00 | 0.00 | 83 | 1016.9 |
| 20260906153052 | 22 | 114 | 4.8 | 12.9 | 0.00 | 0.00 | 0.00 | 85 | 1016.8 |
| 20260906151549 | 21 | 130 | 6.4 | 12.9 | 0.00 | 0.00 | 0.00 | 86 | 1016.7 |
| 20260906150056 | 21 | 180 | 8.0 | 12.9 | 0.00 | 0.00 | 0.00 | 88 | 1016.8 |
| 20260906144552 | 20 | 121 | 6.4 | 14.5 | 0.00 | 0.00 | 0.00 | 89 | 1016.8 |
| 20260906143053 | 20 | 122 | 6.4 | 12.9 | 0.00 | 0.00 | 0.00 | 91 | 1016.9 |
| 20260906141600 | 19 | 156 | 3.2 | 9.7 | 0.00 | 0.00 | 0.00 | 93 | 1016.7 |
| 20260906140105 | 18 | 80 | 3.2 | 8.0 | 0.00 | 0.00 | 0.00 | 94 | 1016.8 |
| 20260906134552 | 18 | 64 | 1.6 | 8.0 | 0.00 | 0.00 | 0.00 | 96 | 1016.8 |
| 20260906133056 | 17 | 5 | 3.2 | 9.7 | 0.00 | 0.00 | 0.00 | 96 | 1016.7 |
| 20260906131615 | 17 | 56 | 1.6 | 4.8 | 0.00 | 0.00 | 0.00 | 96 | 1016.7 |
| 20260906130105 | 16 | 0 | 0.0 | 6.4 | 0.00 | 0.00 | 0.00 | 96 | 1016.8 |
| 20260906124553 | 16 | 0 | 0.0 | 4.8 | 0.00 | 0.05 | 0.00 | 96 | 1016.7 |
| 20260906123101 | 16 | 0 | 1.6 | 3.2 | 0.00 | 0.05 | 0.00 | 96 | 1016.9 |
| 20260906121558 | 15 | 0 | 0.0 | 3.2 | 0.00 | 0.05 | 0.00 | 96 | 1016.8 |
| 20260906120101 | 16 | 103 | 0.0 | 4.8 | 0.00 | 0.05 | 0.00 | 96 | 1016.8 |
| 20260906114553 | 16 | 103 | 0.0 | 4.8 | 0.00 | 0.05 | 0.00 | 96 | 1016.6 |
| 20260906113051 | 16 | 103 | 1.6 | 4.8 | 0.00 | 0.05 | 0.00 | 96 | 1016.7 |
| 20260906111548 | 16 | 0 | 0.0 | 3.2 | 0.00 | 0.05 | 0.00 | 96 | 1016.8 |
| 20260906110056 | 15 | 0 | 0.0 | 3.2 | 0.00 | 0.05 | 0.00 | 96 | 1016.5 |
| 20260906104551 | 15 | 103 | 1.6 | 4.8 | 0.00 | 0.05 | 0.00 | 96 | 1016.6 |
| 20260906103049 | 15 | 98 | 1.6 | 4.8 | 0.00 | 0.05 | 0.00 | 96 | 1016.5 |
| 20260906101550 | 15 | 0 | 0.0 | 4.8 | 0.00 | 0.05 | 0.00 | 96 | 1016.1 |
| 20260906100055 | 15 | 76 | 0.0 | 6.4 | 0.00 | 0.05 | 0.00 | 96 | 1016.0 |
| 20260906094549 | 15 | 76 | 0.0 | 3.2 | 0.00 | 0.05 | 0.00 | 96 | 1015.8 |
| 20260906093056 | 15 | 76 | 0.0 | 4.8 | 0.00 | 0.05 | 0.00 | 96 | 1015.8 |
| 20260906091557 | 15 | 68 | 0.0 | 6.4 | 0.00 | 0.05 | 0.00 | 96 | 1015.6 |
| 20260906090058 | 15 | 93 | 1.6 | 6.4 | 0.00 | 0.05 | 0.00 | 95 | 1015.8 |
| 20260906084555 | 15 | 86 | 0.0 | 4.8 | 0.00 | 0.05 | 0.00 | 95 | 1016.0 |
| 20260906083059 | 15 | 96 | 1.6 | 6.4 | 0.00 | 0.05 | 0.00 | 95 | 1016.1 |
| 20260906081549 | 15 | 5 | 0.0 | 4.8 | 0.00 | 0.05 | 0.00 | 95 | 1016.2 |
| 20260906080059 | 16 | 0 | 0.0 | 0.0 | 0.00 | 0.05 | 0.00 | 95 | 1016.4 |
| 20260906074558 | 15 | 0 | 0.0 | 3.2 | 0.00 | 0.05 | 0.00 | 95 | 1016.4 |
| 20260906073050 | 16 | 0 | 0.0 | 3.2 | 0.00 | 0.05 | 0.00 | 94 | 1016.3 |
| 20260906071600 | 16 | 0 | 0.0 | 4.8 | 0.00 | 0.05 | 0.00 | 94 | 1016.3 |
| 20260906070057 | 16 | 0 | 0.0 | 3.2 | 0.00 | 0.05 | 0.00 | 94 | 1016.0 |
| 20260906064552 | 16 | 5 | 0.0 | 4.8 | 0.00 | 0.05 | 0.00 | 94 | 1016.2 |
| 20260906063052 | 16 | 105 | 1.6 | 4.8 | 0.00 | 0.05 | 0.00 | 93 | 1016.3 |
| 20260906061559 | 17 | 0 | 0.0 | 4.8 | 0.00 | 0.05 | 0.00 | 93 | 1016.1 |
| 20260906060103 | 17 | 0 | 0.0 | 4.8 | 0.00 | 0.05 | 0.00 | 92 | 1016.2 |
| 20260906054552 | 17 | 105 | 0.0 | 3.2 | 0.00 | 0.05 | 0.00 | 91 | 1016.2 |
| 20260906053058 | 18 | 105 | 1.6 | 11.3 | 0.00 | 0.05 | 0.00 | 91 | 1016.0 |
| 20260906051600 | 18 | 94 | 3.2 | 11.3 | 0.00 | 0.05 | 0.00 | 90 | 1016.1 |
| 20260906050059 | 18 | 92 | 6.4 | 12.9 | 0.00 | 0.05 | 0.00 | 89 | 1016.2 |
| 20260906044552 | 18 | 134 | 4.8 | 11.3 | 0.00 | 0.05 | 0.05 | 89 | 1016.3 |
| 20260906043059 | 18 | 105 | 6.4 | 11.3 | 0.00 | 0.05 | 0.05 | 90 | 1016.1 |
| 20260906041558 | 18 | 136 | 9.7 | 14.5 | 0.00 | 0.05 | 0.05 | 89 | 1016.1 |
| 20260906040056 | 19 | 110 | 11.3 | 19.3 | 0.00 | 0.05 | 0.05 | 87 | 1016.0 |
| 20260906034602 | 20 | 126 | 8.0 | 16.1 | 0.00 | 0.05 | 0.05 | 87 | 1016.0 |
| 20260906033050 | 19 | 105 | 6.4 | 16.1 | 0.00 | 0.05 | 0.05 | 87 | 1016.3 |
| 20260906031558 | 19 | 121 | 8.0 | 16.1 | 0.00 | 0.05 | 0.05 | 86 | 1016.3 |
| 20260906030054 | 20 | 99 | 8.0 | 14.5 | 0.00 | 0.05 | 0.05 | 87 | 1016.5 |
| 20260906024600 | 19 | 0 | 0.0 | 3.2 | 0.00 | 0.05 | 0.05 | 88 | 1016.6 |
| 20260906023046 | 19 | 0 | 0.0 | 3.2 | 0.00 | 0.05 | 0.05 | 88 | 1016.5 |
| 20260906021557 | 19 | 0 | 0.0 | 3.2 | 0.00 | 0.05 | 0.05 | 86 | 1016.3 |
| 20260906020048 | 20 | 0 | 0.0 | 1.6 | 0.00 | 0.05 | 0.05 | 85 | 1016.4 |
| 20260906014605 | 20 | 90 | 0.0 | 0.0 | 0.00 | 0.05 | 0.05 | 85 | 1016.2 |
| 20260906013052 | 21 | 0 | 1.6 | 6.4 | 0.00 | 0.05 | 0.05 | 83 | 1016.2 |
| 20260906011603 | 21 | 0 | 0.0 | 0.0 | 0.00 | 0.05 | 0.05 | 81 | 1015.9 |
| 20260906010050 | 22 | 0 | 0.0 | 0.0 | 0.00 | 0.05 | 0.05 | 79 | 1015.6 |
| 20260906004557 | 22 | 0 | 0.0 | 3.2 | 0.00 | 0.05 | 0.05 | 79 | 1014.9 |
| 20260906003053 | 23 | 88 | 4.8 | 9.7 | 0.00 | 0.05 | 0.05 | 75 | 1014.6 |
| 20260906001556 | 23 | 0 | 0.0 | 3.2 | 0.00 | 0.05 | 0.05 | 74 | 1014.5 |
| 20260906000100 | 23 | 0 | 0.0 | 0.0 | 0.00 | 0.05 | 0.05 | 74 | 1014.6 |
| 20260905234556 | 24 | 96 | 0.0 | 4.8 | 0.00 | 0.05 | 0.05 | 70 | 1014.6 |
| 20260905233108 | 25 | 96 | 1.6 | 12.9 | 0.00 | 0.05 | 0.05 | 68 | 1014.4 |
| 20260905231555 | 26 | 107 | 11.3 | 19.3 | 0.00 | 0.05 | 0.05 | 64 | 1014.1 |
| 20260905230051 | 26 | 111 | 12.9 | 17.7 | 0.00 | 0.05 | 0.05 | 64 | 1014.1 |
| 20260905224608 | 26 | 131 | 9.7 | 19.3 | 0.00 | 0.05 | 0.05 | 63 | 1014.2 |
| 20260905223107 | 26 | 131 | 11.3 | 20.9 | 0.00 | 0.05 | 0.05 | 63 | 1014.2 |
| 20260905221557 | 26 | 133 | 9.7 | 22.5 | 0.00 | 0.05 | 0.05 | 62 | 1014.3 |
| 20260905220054 | 26 | 127 | 14.5 | 22.5 | 0.00 | 0.05 | 0.05 | 64 | 1014.3 |
| 20260905214549 | 26 | 133 | 14.5 | 22.5 | 0.00 | 0.05 | 0.05 | 64 | 1014.4 |
| 20260905213050 | 26 | 142 | 12.9 | 22.5 | 0.00 | 0.05 | 0.05 | 65 | 1014.7 |
| 20260905211555 | 27 | 139 | 14.5 | 22.5 | 0.00 | 0.05 | 0.05 | 65 | 1014.9 |
| 20260905210055 | 26 | 126 | 14.5 | 22.5 | 0.00 | 0.05 | 0.05 | 64 | 1014.7 |